Change the Weather History Date:

Wednesday, April 2, 2014

  Actual Average Record
Temperature  
Mean Temperature 38 °F -  
Max Temperature 44 °F 56 °F 59 °F (2013)
Min Temperature 32 °F 34 °F 32 °F (2014)
Degree Days  
Heating Degree Days 27    
Moisture  
Dew Point 32 °F    
Average Humidity 84    
Maximum Humidity 100    
Minimum Humidity 57    
Precipitation  
Precipitation 2.09 in - - ()
Sea Level Pressure  
Sea Level Pressure 29.95 in    
Wind  
Wind Speed 14 mph (NW)    
Max Wind Speed 22 mph    
Max Gust Speed 32 mph    
Visibility 7 miles    
Events Rain , Snow    
Averages and records for this station are not official NWS values.
T = Trace of Precipitation, MM = Missing Value Source: NWS Daily Summary

Daily Weather History Graph

Daily Weather History Graph

Search for Another Location

Airport or City:

Trip Planner

Search our weather history database for the weather conditions in past years. The results will help you decide how hot, cold, wet, or windy it might be!

Date:

Astronomy

Apr. 02, 2014 Rise Set
Actual Time 6:38 AM PDT 7:16 PM PDT
Civil Twilight 6:13 AM PDT 7:41 PM PDT
Nautical Twilight 5:43 AM PDT 8:11 PM PDT
Astronomical Twilight 5:12 AM PDT 8:42 PM PDT
Moon 8:33 AM PDT (4/2) 10:36 PM PDT (4/2)
Length of Visible Light 13h 28m
Length of Day
12h 37m
Waxing Crescent, 11% of the Moon is Illuminated
Apr 2
Waxing Crescent
Apr 7
First Quarter
Apr 15
Full
Apr 22
Last Quarter
Apr 28
New

Hourly Weather History & Observations

Time (PDT) Temp. Windchill Dew Point Humidity Pressure Visibility Wind Dir Wind Speed Gust Speed Precip Events Conditions
12:15 AM 35.6 °F 28.6 °F 33.8 °F 93% 29.88 in 5.0 mi NW 9.2 mph - N/A Rain Light Rain
12:35 AM 35.6 °F 26.2 °F 33.8 °F 93% 29.87 in 7.0 mi NNW 15.0 mph 20.7 mph N/A Rain Light Rain
12:55 AM 33.8 °F 23.9 °F 33.8 °F 100% 29.87 in 9.0 mi NNW 15.0 mph 20.7 mph N/A   Overcast
1:15 AM 33.8 °F 24.3 °F 33.8 °F 100% 29.87 in 9.0 mi NW 13.8 mph 17.3 mph N/A Rain Light Rain
1:35 AM 32.0 °F 23.0 °F 32.0 °F 100% 29.88 in 1.0 mi NW 11.5 mph - 0.09 in Snow Light Snow
1:55 AM 32.0 °F 24.2 °F 32.0 °F 100% 29.88 in 1.5 mi WNW 9.2 mph - 0.25 in Snow Light Snow
2:15 AM 32.0 °F 23.0 °F 32.0 °F 100% 29.87 in 2.5 mi NW 11.5 mph - 0.02 in Snow Light Snow
2:35 AM 32.0 °F 22.5 °F 32.0 °F 100% 29.88 in 1.5 mi NW 12.7 mph - 0.08 in Snow Light Snow
2:55 AM 32.0 °F 22.5 °F 32.0 °F 100% 29.88 in 0.2 mi NW 12.7 mph - 0.12 in Rain Light Rain
3:15 AM 32.0 °F 23.0 °F 32.0 °F 100% 29.87 in 5.0 mi NW 11.5 mph - N/A Rain Light Rain
3:35 AM 32.0 °F 23.0 °F 32.0 °F 100% 29.86 in 5.0 mi NW 11.5 mph - 0.05 in   Overcast
3:55 AM 32.0 °F 23.0 °F 32.0 °F 100% 29.86 in 3.0 mi NW 11.5 mph - 0.09 in Rain Light Rain
4:15 AM 32.0 °F 22.5 °F 32.0 °F 100% 29.87 in 2.0 mi NW 12.7 mph - 0.07 in Rain Heavy Rain
5:35 AM 32.0 °F 23.0 °F 32.0 °F 100% 29.87 in 2.5 mi WNW 11.5 mph 18.4 mph 0.11 in Rain Light Rain
5:55 AM 32.0 °F 21.6 °F 32.0 °F 100% 29.87 in 0.8 mi WNW 15.0 mph 20.7 mph 0.26 in Snow Light Snow
6:15 AM 32.0 °F 22.1 °F 32.0 °F 100% 29.88 in 1.2 mi NW 13.8 mph 20.7 mph 0.29 in Snow Light Snow
6:35 AM 32.0 °F 23.0 °F 32.0 °F 100% 29.89 in 1.0 mi NW 11.5 mph 18.4 mph 0.42 in Snow Light Snow
6:55 AM 32.0 °F 24.2 °F 32.0 °F 100% 29.90 in 3.0 mi NW 9.2 mph 17.3 mph 0.47 in Rain Light Rain
7:15 AM 32.0 °F 24.8 °F 32.0 °F 100% 29.90 in 2.0 mi WNW 8.1 mph - N/A Snow Light Snow
7:35 AM 32.0 °F 24.2 °F 32.0 °F 100% 29.90 in 0.5 mi WNW 9.2 mph - 0.23 in Snow Snow
7:55 AM 32.0 °F 24.2 °F 32.0 °F 100% 29.90 in 2.5 mi NW 9.2 mph - 0.23 in Rain Light Rain
8:15 AM 32.0 °F 21.2 °F 32.0 °F 100% 29.91 in 0.2 mi NW 16.1 mph - 0.13 in Snow Heavy Snow
8:35 AM 32.0 °F 22.1 °F 32.0 °F 100% 29.91 in 0.5 mi WNW 13.8 mph - 0.45 in Snow Snow
8:55 AM 32.0 °F 22.1 °F 32.0 °F 100% 29.91 in 3.0 mi NW 13.8 mph - 0.47 in Rain Light Rain
9:15 AM 32.0 °F 21.2 °F 32.0 °F 100% 29.92 in 0.8 mi NW 16.1 mph - 0.03 in   Overcast
9:35 AM 32.0 °F 21.2 °F 32.0 °F 100% 29.92 in 1.2 mi NW 16.1 mph 23.0 mph 0.12 in Rain Rain
9:55 AM 33.8 °F 23.5 °F 33.8 °F 100% 29.93 in 3.0 mi NW 16.1 mph - 0.13 in Rain Light Rain
10:15 AM 35.6 °F 25.2 °F 35.6 °F 100% 29.93 in 5.0 mi WNW 18.4 mph - N/A Rain Light Rain
10:55 AM 37.4 °F 27.5 °F 35.6 °F 93% 29.94 in 10.0 mi NW 18.4 mph 25.3 mph N/A   Overcast
11:15 AM 37.4 °F 27.2 °F 35.6 °F 93% 29.95 in 10.0 mi NW 19.6 mph 32.2 mph N/A   Overcast
11:35 AM 39.2 °F 30.5 °F 35.6 °F 87% 29.96 in 7.0 mi NW 16.1 mph 24.2 mph N/A Rain Light Rain
11:55 AM 39.2 °F 29.8 °F 35.6 °F 87% 29.96 in 10.0 mi NW 18.4 mph 25.3 mph N/A Rain Light Rain
12:15 PM 39.2 °F 29.3 °F 32.0 °F 75% 29.96 in 9.0 mi NW 20.7 mph 24.2 mph N/A Rain Light Rain
12:35 PM 39.2 °F 29.8 °F 33.8 °F 81% 29.96 in 10.0 mi NW 18.4 mph 23.0 mph N/A   Overcast
12:55 PM 39.2 °F 30.5 °F 32.0 °F 75% 29.97 in 10.0 mi NW 16.1 mph - N/A   Overcast
1:15 PM 41.0 °F 32.2 °F 35.6 °F 81% 29.97 in 9.0 mi NW 18.4 mph 23.0 mph N/A   Mostly Cloudy
1:35 PM 41.0 °F 32.5 °F 35.6 °F 81% 29.97 in 10.0 mi NNW 17.3 mph 20.7 mph N/A   Mostly Cloudy
1:55 PM 42.8 °F 35.1 °F 35.6 °F 76% 29.97 in 10.0 mi NW 16.1 mph 23.0 mph N/A   Mostly Cloudy
2:15 PM 41.0 °F 32.5 °F 32.0 °F 70% 29.97 in 10.0 mi NW 17.3 mph 24.2 mph N/A   Overcast
2:35 PM 41.0 °F 31.4 °F 32.0 °F 70% 29.97 in 10.0 mi NW 21.9 mph 25.3 mph N/A   Scattered Clouds
2:55 PM 44.6 °F 36.6 °F 30.2 °F 57% 29.97 in 9.0 mi NW 19.6 mph 25.3 mph N/A   Clear
3:15 PM 44.6 °F 37.4 °F 32.0 °F 61% 29.97 in 10.0 mi WNW 16.1 mph 26.5 mph N/A   Partly Cloudy
3:35 PM 44.6 °F 37.2 °F 30.2 °F 57% 29.97 in 10.0 mi NW 17.3 mph 24.2 mph N/A   Partly Cloudy
3:55 PM 44.6 °F 36.9 °F 32.0 °F 61% 29.97 in 9.0 mi NW 18.4 mph 23.0 mph N/A   Clear
4:15 PM 44.6 °F 36.9 °F 32.0 °F 61% 29.97 in 10.0 mi NW 18.4 mph - N/A   Clear
4:35 PM 44.6 °F 36.9 °F 32.0 °F 61% 29.97 in 10.0 mi NW 18.4 mph - N/A   Clear
4:55 PM 44.6 °F 36.9 °F 32.0 °F 61% 29.98 in 10.0 mi NW 18.4 mph 23.0 mph N/A   Partly Cloudy
5:15 PM 44.6 °F 36.9 °F 32.0 °F 61% 29.98 in 10.0 mi WNW 18.4 mph 24.2 mph N/A   Partly Cloudy
5:35 PM 42.8 °F 34.5 °F 30.2 °F 61% 29.98 in 10.0 mi WNW 18.4 mph 25.3 mph N/A   Partly Cloudy
5:55 PM 42.8 °F 35.1 °F 30.2 °F 61% 29.98 in 10.0 mi NW 16.1 mph 25.3 mph N/A   Partly Cloudy
6:15 PM 41.0 °F 33.5 °F 30.2 °F 65% 29.99 in 10.0 mi WNW 13.8 mph 23.0 mph N/A   Clear
6:35 PM 41.0 °F 33.5 °F 30.2 °F 65% 29.99 in 10.0 mi WNW 13.8 mph - N/A   Clear
6:55 PM 41.0 °F 32.8 °F 28.4 °F 61% 30.00 in 10.0 mi WNW 16.1 mph 20.7 mph N/A   Scattered Clouds
7:15 PM 41.0 °F 33.9 °F 28.4 °F 61% 30.00 in 10.0 mi WNW 12.7 mph - N/A   Overcast
7:35 PM 41.0 °F 34.3 °F 32.0 °F 70% 30.01 in 10.0 mi WNW 11.5 mph - N/A   Overcast
7:55 PM 39.2 °F 31.2 °F 32.0 °F 75% 30.02 in 10.0 mi WNW 13.8 mph - N/A   Overcast
8:15 PM 39.2 °F 30.2 °F 32.0 °F 75% 30.02 in 10.0 mi WNW 17.3 mph 21.9 mph N/A   Overcast
8:35 PM 39.2 °F 30.8 °F 32.0 °F 75% 30.04 in 10.0 mi WNW 15.0 mph 21.9 mph N/A   Overcast
8:55 PM 39.2 °F 29.8 °F 32.0 °F 75% 30.04 in 10.0 mi WNW 18.4 mph 21.9 mph N/A   Scattered Clouds
9:15 PM 39.2 °F 30.8 °F 32.0 °F 75% 30.05 in 10.0 mi WNW 15.0 mph 23.0 mph N/A   Partly Cloudy
9:35 PM 39.2 °F 31.6 °F 32.0 °F 75% 30.06 in 10.0 mi WNW 12.7 mph - N/A   Mostly Cloudy
9:55 PM 39.2 °F 29.8 °F 33.8 °F 81% 30.07 in 10.0 mi WNW 18.4 mph - N/A   Overcast
10:15 PM 39.2 °F 31.2 °F 33.8 °F 81% 30.07 in 10.0 mi WNW 13.8 mph - N/A   Overcast
10:55 PM 39.2 °F 31.2 °F 33.8 °F 81% 30.09 in 10.0 mi WNW 13.8 mph - N/A   Overcast
11:15 PM 39.2 °F 33.0 °F 32.0 °F 75% 30.09 in 10.0 mi West 9.2 mph - N/A   Overcast
11:35 PM 39.2 °F 31.6 °F 32.0 °F 75% 30.09 in 10.0 mi WNW 12.7 mph - N/A   Overcast
11:55 PM 39.2 °F 32.5 °F 32.0 °F 75% 30.09 in 10.0 mi WNW 10.4 mph - N/A   Overcast